Location: Casteau
(50.5142°N, 4.0161°E)
Time: 20:56:31
(UTC+00:00)

Tiros 1 - Pass Details

Date: 01 August 2021
Orbit: 630 x 663 km, 48.4° (Epoch: 28 September)

Event Time Altitude Azimuth Distance (km) Brightness Sun altitude
Rises 23:08:35 0° 281° (W) 2,964 10.8 -21.1°
Reaches altitude 10° 23:11:13 10° 269° (W) 2,045 9.8 -21.2°
Enters shadow 23:13:43 23° 241° (WSW) 1,378 8.6 -21.3°
Maximum altitude 23:15:08 27° 212° (SSW) 1,246 - -21.3°
Drops below altitude 10° 23:19:01 10° 156° (SSE) 2,020 - -21.4°
Sets 23:21:36 0° 144° (SE) 2,920 - -21.4°
